Flag for Denmark Weather past 2 weeks in Randers, Denmark

Now
82 °F

Pleasantly warm.


Feels Like: 81 °F
Forecast: 63 / 79 °F
Wind: 13 mph from Northeast

Location: Tirstrup

Current Time: Jul 22, 2014 at 4:21:24 PM

Latest Report: Jul 22, 2014 at 3:50 PM


Visibility: N/A

Pressure: 30.21 "Hg

Humidity: 28%

Dew point: 46 °F

Location of RandersLocation

Historic Weather in Randers — Graph

°F

Randers temperature yesterday

Maximum temperature yesterday: 79 °F (at 3:50 PM)
Minimum temperature yesterday: 64 °F (at 11:20 PM)
Average temperature yesterday: 72 °F

Past Weeks' High & Low Weather Summary

 TemperatureHumidityPressure
High86 °F (Jul 9, 4:50 PM)94% (Jul 13, 8:20 AM)30.24 "Hg (Jul 13, 8:20 AM)
Low48 °F (Jul 17, 5:20 AM)28% (Jul 22, 1:20 PM)29.50 "Hg (Jul 13, 9:20 PM)
Average68 °F66%29.99 "Hg
* Reported Jul 7 3:20 PM — Jul 22 3:20 PM, Randers, Weather by CustomWeather, © 2014

Note: Actual official high and low records may vary slightly from our data, if they occured in-between our weather recording intervals... More about our weather records

Advertising

Randers weather history for previous 24 hours

 ConditionsComfort  
Time TempWeatherWind HumidityBarometerVisibility
3:20 PM
Jul 22
81 °FPleasantly warm.14 mph28%30.21 "HgN/A
2:50 PM81 °FPleasantly warm.14 mph28%30.24 "HgN/A
2:20 PM81 °FPleasantly warm.13 mph30%30.24 "HgN/A
1:50 PM79 °FPleasantly warm.13 mph32%30.24 "HgN/A
1:20 PM81 °FPleasantly warm.14 mph28%30.24 "HgN/A
12:50 PM79 °FPleasantly warm.13 mph30%30.21 "HgN/A
12:20 PM79 °FPleasantly warm.14 mph32%30.21 "HgN/A
11:50 AM79 °FPleasantly warm.14 mph30%30.21 "HgN/A
11:20 AM79 °FPleasantly warm.14 mph30%30.21 "HgN/A
10:50 AM77 °FPleasantly warm.12 mph36%30.21 "HgN/A
10:20 AM77 °FPleasantly warm.12 mph36%30.21 "HgN/A
9:50 AM77 °FPleasantly warm.12 mph34%30.21 "HgN/A
9:20 AM75 °FMild.8 mph47%30.21 "HgN/A
8:50 AM73 °FMild.8 mph53%30.21 "HgN/A
8:20 AM72 °FMild.6 mph73%30.21 "HgN/A
7:50 AM68 °FMild.3 mph88%30.21 "HgN/A
7:20 AM66 °FPassing clouds.3 mph88%30.18 "HgN/A
6:50 AM63 °FScattered clouds.No wind88%30.18 "Hg4 mi
6:20 AM61 °FDense fog.1 mph88%30.18 "Hg0 mi
5:50 AM59 °FFog.No wind94%30.18 "Hg0 mi
5:20 AM59 °FFog.1 mph88%30.15 "Hg0 mi
4:50 AM61 °FFog.1 mph83%30.15 "Hg0 mi
4:20 AM61 °FDense fog.No wind88%30.15 "Hg0 mi
3:50 AM61 °FFog.1 mph88%30.15 "Hg1 mi
3:20 AM61 °FFog.1 mph88%30.15 "Hg1 mi
2:50 AM63 °FFog.2 mph83%30.15 "Hg0 mi
2:20 AM63 °FMild.3 mph83%30.15 "Hg3 mi
1:50 AM63 °FMild.3 mph83%30.15 "HgN/A
1:20 AM63 °FMild.3 mph83%30.12 "HgN/A
12:50 AM63 °FPassing clouds.2 mph83%30.12 "HgN/A
12:20 AM64 °FMild.2 mph78%30.12 "HgN/A
11:50 PM
Jul 21
64 °FMild.1 mph78%30.12 "HgN/A
11:20 PM64 °FMild.3 mph78%30.12 "HgN/A
10:50 PM68 °FMild.3 mph69%30.12 "HgN/A
10:20 PM70 °FMild.2 mph64%30.12 "HgN/A
9:50 PM72 °FMild.5 mph65%30.09 "HgN/A
9:20 PM73 °FMild.5 mph57%30.09 "HgN/A
8:50 PM75 °FMild.5 mph50%30.09 "HgN/A
8:20 PM77 °FWarm.7 mph44%30.09 "HgN/A
7:50 PM77 °FWarm.8 mph44%30.09 "HgN/A
7:20 PM79 °FWarm.8 mph42%30.09 "HgN/A
6:50 PM79 °FPleasantly warm.8 mph37%30.07 "HgN/A
6:20 PM79 °FPleasantly warm.9 mph37%30.07 "HgN/A
5:50 PM79 °FPleasantly warm.9 mph37%30.07 "HgN/A
5:20 PM79 °FPleasantly warm.10 mph34%30.07 "HgN/A
4:50 PM79 °FPleasantly warm.13 mph34%30.07 "HgN/A
4:20 PM79 °FPleasantly warm.12 mph34%30.07 "HgN/A
Weather by CustomWeather, © 2014

See weather overviewHow to use our weather pages